Weather in Usady

Russia / Ryazan Oblast     54°09′07″N   42°04′28″E
temp.,
°C
wind,
m/s
gust,
m/s
humid.,
%
clouds,
%
prec.,
mm/h
press.,
hPa
HPBL,
m
18 may, tue
tue1800:00+17ese4972100 0.0 1013140
03:00+15ese410735 0.0 1013151
06:00+16ese4127041 0.0 1012197
09:00+23ese512585 0.0 1012476
12:00+26se610475 0.0 10111121
15:00+28ese610465 0.0 1010808
18:00+24ese613605 0.0 1010386
21:00+21ese616610 0.0 1009383
19 may, wed
wed1900:00+19se5145857 0.0 1009325
03:00+16ese497022 0.0 1010141
06:00+16se377959 0.0 1010192
09:00+21sse3562100 0.0 1010616
12:00+25se5853100 0.0 10101186
15:00+26se712545 0.0 10081630
18:00+24se510655 0.0 1008421
21:00+19ese41280100 0.8 1008281
20 may, thu
thu2000:00+17se5167360 0.4 1007367
03:00+15s369696 1.1 1009184
06:00+15se31092100 0.3 1009555
09:00+17sse6975100 0.4 10101093
12:00+20sse7959100 0.1 10101886
15:00+19s796149 0.2 10101719
18:00+17s487493 0.1 1010569
21:00+14sse348651 0.2 101173
21 may, fri
fri2100:00+12s34945 0.0 101083
03:00+11ssw33965 0.0 101164
06:00+13ssw359072 0.0 1011189
09:00+15sw6880100 0.2 1012702
12:00+16wsw687379 0.7 10131228
15:00+17wsw686796 0.9 10141334
18:00+15w587991 0.1 1015889
21:00+13w4880100 0.1 1017388
22 may, sat
sat2200:00+11w3492100 0.0 101766
03:00+10w129299 0.0 101912
06:00+12w1187100 0.0 101994
09:00+15sse2276100 0.0 1020521
12:00+13se1295100 5.1 1021180
15:00+13ene3596100 8.3 1020312
18:00+12e4899100 9.3 1019280
21:00+12ene4997100 14.6 1019244